Weather Roundup
Issued by NWS Springfield, MO

Home | Current Version | Previous Version | Text Only | Print | Product List | Glossary On
Versions: 1 2 3 4 5 6 7 8 9 10 11 12 13 14 15 16 17 18 19 20 21 22 23 24 25 26 27 28 29 30 31 32 33 34 35 36 37 38 39 40 41 42 43 44 45 46 47 48 49 50
000
NZUS99 KSGF 080507
HRRSGF

HOURLY WEATHER
NATIONAL WEATHER SERVICE SPRINGFIELD MO
1100 PM CST WED DEC 07 2016

......SGF CWA......

CITY           SKY/WX    TMP DP  RH WIND       PRES   REMARKS
SPRINGFIELD    CLOUDY    27  22  81 NW16      30.41R WCI  15
JOPLIN         CLEAR     22  20  92 N5        30.47R WCI  16
WEST PLAINS    CLOUDY    31  24  75 N10       30.35R WCI  22
ROLLA          CLEAR     24  19  81 NW14      30.36R WCI  12
OSAGE BEACH    PTCLDY    25  17  72 NW7       30.43R WCI  17
BRANSON        CLOUDY    28  25  86 NW10      30.39R WCI  19

......SURROUNDING SGF CWA......

CITY           SKY/WX    TMP DP  RH WIND       PRES   REMARKS
CHANUTE        CLEAR     21  17  84 NW8       30.50R WCI  11
PARSONS        CLEAR     23  19  85 N8        30.51R WCI  14
COFFEYVILLE    CLOUDY    24  20  84 N12       30.52R WCI  13
EMPORIA        CLEAR     18  13  80 NW6       30.50R WCI  10
GROVE OK       CLOUDY    32  27  80 N7        30.48R WCI  26
ROGERS AR      CLOUDY    28  24  85 N10       30.42R WCI  19
SILOAM SPRINGS CLOUDY    28  23  80 N9        30.42R WCI  20
HARRISON AR    CLOUDY    30  24  78 NW8       30.37R WCI  22
NEAR YELLVILLE CLOUDY    36  19  51 N7        30.35R WCI  30

......KANSAS AND MISSOURI......

CITY           SKY/WX    TMP DP  RH WIND       PRES   REMARKS
KANSAS CTY INT CLEAR     19   8  62 NW12      30.46R WCI   7
DOWNTOWN KC    CLEAR     23  10  57 W6        30.48R WCI  16
COLUMBIA       CLEAR     23  12  62 NW10      30.41R WCI  12
SEDALIA        CLEAR     22  13  68 NW8       30.45R WCI  12
ST JOSEPH      CLEAR     19  10  68 NW10      30.48R WCI   7
ST LOUIS       PTCLDY    30  16  56 W10       30.35R WCI  21
SPIRIT OF STL  CLEAR     29  16  58 NW15      30.37R WCI  18
KIRKSVILLE     CLEAR     19  10  68 W12       30.37R WCI   7
WICHITA        CLEAR     21  15  78 NW8       30.54R WCI  11
TOPEKA         CLEAR     20   9  62 NW9       30.51R WCI   9
OLATHE         CLEAR     20   9  62 NW9       30.46R WCI   9

......TENNESSEE......

CITY           SKY/WX    TMP DP  RH WIND       PRES   REMARKS
MEMPHIS        CLOUDY    41  27  57 N8        30.29R
NASHVILLE      CLOUDY    40  24  53 N10       30.24R WCI  33

......ARKANSAS.......

CITY           SKY/WX    TMP DP  RH WIND       PRES   REMARKS
FAYETTEVILLE   PTCLDY    29  24  82 N9        30.40R WCI  20
FT SMITH       CLOUDY    37  29  72 NW6       30.41R WCI  32
LITTLE ROCK    CLOUDY    38  28  67 N7        30.35R WCI  33

......OKLAHOMA.......

CITY           SKY/WX    TMP DP  RH WIND       PRES   REMARKS
TULSA          CLOUDY    28  24  85 N13       30.50R WCI  17
PONCA CITY     CLOUDY    24  18  77 N8        30.53R WCI  15
MCALESTER      FLURRIES  34  25  69 N21G29    30.42R WCI  22
OKLAHOMA CITY  CLOUDY    29  23  78 N10       30.48R WCI  20

......IOWA............

CITY           SKY/WX    TMP DP  RH WIND       PRES   REMARKS
DES MOINES     PTCLDY    18   7  62 NW21G30   30.35R WCI   1
QUAD CITIES    CLEAR     22  12  65 W21G29    30.26R WCI   6

......ILLINOIS........

CITY           SKY/WX    TMP DP  RH WIND       PRES   REMARKS
QUINCY         CLEAR     22  12  65 W12       30.35R WCI  10
CHICAGO        FLURRIES  24  15  68 W17G29    30.14S WCI  11



USA.gov is the U.S. government's official web portal to all federal, state and local government web resources and services.